TimeCDT,TemperatureF,Dew PointF,Humidity,Sea Level PressureIn,VisibilityMPH,Wind Direction,Wind SpeedMPH,Gust SpeedMPH,PrecipitationIn,Events,Conditions,WindDirDegrees,DateUTC
12:02 AM,59.0,57.2,94,29.98,4.0,SE,13.8,19.6,0.93,Rain-Thunderstorm,Heavy Thunderstorms and Rain,140,2013-05-10 05:02:00
12:08 AM,59.0,57.2,94,29.98,5.0,SSE,8.1,-,1.02,Rain-Thunderstorm,Heavy Thunderstorms and Rain,150,2013-05-10 05:08:00
12:15 AM,59.0,57.2,94,29.97,4.0,South,16.1,-,0.05,Rain-Thunderstorm,Heavy Thunderstorms and Rain,170,2013-05-10 05:15:00
12:19 AM,60.8,57.2,88,29.95,4.0,SE,16.1,-,0.13,Rain-Thunderstorm,Heavy Thunderstorms and Rain,140,2013-05-10 05:19:00
12:37 AM,59.0,57.2,94,29.97,6.0,NNW,9.2,-,0.29,Rain-Thunderstorm,Heavy Thunderstorms and Rain,330,2013-05-10 05:37:00
12:41 AM,59.0,57.2,94,29.96,5.0,NE,10.4,-,0.34,Rain-Thunderstorm,Heavy Thunderstorms and Rain,50,2013-05-10 05:41:00
12:46 AM,59.0,57.2,94,30.00,5.0,WSW,8.1,-,0.38,Rain-Thunderstorm,Heavy Rain,240,2013-05-10 05:46:00
12:51 AM,59.0,57.2,94,30.00,6.0,WSW,3.5,-,0.40,Rain-Thunderstorm,Thunderstorms and Rain,240,2013-05-10 05:51:00
12:57 AM,59.0,57.2,94,30.01,7.0,West,5.8,-,0.43,Rain-Thunderstorm,Thunderstorms and Rain,280,2013-05-10 05:57:00
12:59 AM,59.0,57.9,96,29.98,5.0,West,3.5,-,0.46,Rain-Thunderstorm,Heavy Thunderstorms and Rain,270,2013-05-10 05:59:00
1:05 AM,59.0,57.2,94,30.00,2.0,Calm,Calm,-,0.10,Rain-Thunderstorm,Heavy Rain,0,2013-05-10 06:05:00
1:08 AM,59.0,57.2,94,30.00,1.8,Calm,Calm,-,0.12,Rain-Thunderstorm,Heavy Rain,0,2013-05-10 06:08:00
1:14 AM,59.0,57.2,94,30.00,3.0,NNE,4.6,-,0.15,Rain-Thunderstorm,Thunderstorms and Rain,30,2013-05-10 06:14:00
1:32 AM,59.0,57.2,94,29.97,4.0,NNW,3.5,-,0.24,Rain-Thunderstorm,Rain,330,2013-05-10 06:32:00
1:57 AM,59.0,57.9,96,29.94,5.0,Calm,Calm,-,0.30,Rain-Thunderstorm,Rain,0,2013-05-10 06:57:00
2:02 AM,59.0,57.2,94,29.97,5.0,WSW,5.8,-,0.03,Rain,Rain,240,2013-05-10 07:02:00
2:07 AM,59.0,57.2,94,29.97,7.0,SW,6.9,-,0.06,Rain-Thunderstorm,Thunderstorms and Rain,220,2013-05-10 07:07:00
2:31 AM,59.0,57.2,94,29.97,10.0,West,5.8,-,0.18,Rain,Rain,260,2013-05-10 07:31:00
2:57 AM,59.0,57.9,96,29.92,7.0,SSE,8.1,-,0.30,Rain,Rain,150,2013-05-10 07:57:00
3:57 AM,59.0,57.9,96,29.91,10.0,SSW,8.1,-,0.06,,Mostly Cloudy,210,2013-05-10 08:57:00
4:04 AM,59.0,57.2,94,29.95,10.0,WSW,5.8,-,0.00,Rain,Light Rain,250,2013-05-10 09:04:00
4:57 AM,59.0,57.9,96,29.90,10.0,South,4.6,-,0.01,,Partly Cloudy,190,2013-05-10 09:57:00
5:57 AM,57.2,57.2,100,29.94,1.5,Calm,Calm,-,N/A,,Clear,0,2013-05-10 10:57:00
5:59 AM,57.2,57.2,100,29.94,1.0,Calm,Calm,-,N/A,,Clear,0,2013-05-10 10:59:00
6:01 AM,57.2,55.4,94,29.94,0.8,West,3.5,-,N/A,,Clear,270,2013-05-10 11:01:00
6:06 AM,55.4,55.4,100,29.94,0.5,West,3.5,-,N/A,Fog,Fog,280,2013-05-10 11:06:00
6:10 AM,55.4,55.4,100,29.94,0.2,West,3.5,-,N/A,Fog,Fog,270,2013-05-10 11:10:00
6:16 AM,57.2,55.4,94,29.94,0.2,West,3.5,-,N/A,Fog,Fog,280,2013-05-10 11:16:00
6:22 AM,57.2,55.4,94,29.94,0.5,WNW,3.5,-,N/A,Fog,Fog,290,2013-05-10 11:22:00
6:30 AM,57.2,55.4,94,29.94,0.8,Calm,Calm,-,N/A,,Mostly Cloudy,0,2013-05-10 11:30:00
6:34 AM,57.2,55.4,94,29.95,1.0,Calm,Calm,-,N/A,,Mostly Cloudy,0,2013-05-10 11:34:00
6:37 AM,57.2,55.4,94,29.95,1.5,WNW,3.5,-,N/A,,Overcast,290,2013-05-10 11:37:00
6:41 AM,57.2,57.2,100,29.95,2.5,Calm,Calm,-,N/A,,Overcast,0,2013-05-10 11:41:00
6:47 AM,57.2,57.2,100,29.95,3.0,Calm,Calm,-,N/A,,Overcast,0,2013-05-10 11:47:00
6:57 AM,57.9,57.0,97,29.94,3.0,West,3.5,-,N/A,,Overcast,260,2013-05-10 11:57:00
7:00 AM,57.2,57.2,100,29.95,2.0,West,3.5,-,N/A,,Overcast,280,2013-05-10 12:00:00
7:03 AM,57.2,57.2,100,29.95,1.5,West,3.5,-,N/A,,Overcast,270,2013-05-10 12:03:00
7:13 AM,57.2,57.2,100,29.96,2.0,Calm,Calm,-,N/A,,Overcast,0,2013-05-10 12:13:00
7:18 AM,57.2,57.2,100,29.96,2.5,SW,3.5,-,N/A,,Overcast,220,2013-05-10 12:18:00
7:21 AM,57.2,57.2,100,29.96,3.0,SSW,3.5,-,N/A,,Overcast,210,2013-05-10 12:21:00
7:57 AM,59.0,59.0,100,29.96,6.0,SSW,4.6,-,N/A,,Overcast,210,2013-05-10 12:57:00
8:22 AM,60.8,59.0,94,29.99,6.0,WSW,4.6,-,N/A,,Overcast,250,2013-05-10 13:22:00
8:42 AM,60.8,59.0,94,29.99,4.0,NW,4.6,-,N/A,,Overcast,310,2013-05-10 13:42:00
8:50 AM,60.8,59.0,94,30.00,2.0,WNW,6.9,-,N/A,,Overcast,290,2013-05-10 13:50:00
8:57 AM,60.1,59.0,96,29.98,2.5,WNW,5.8,-,N/A,,Overcast,300,2013-05-10 13:57:00
9:02 AM,60.8,59.0,94,30.00,3.0,WNW,4.6,-,N/A,,Overcast,300,2013-05-10 14:02:00
9:42 AM,62.6,60.8,94,30.01,9.0,WNW,9.2,-,N/A,,Overcast,290,2013-05-10 14:42:00
9:51 AM,62.6,60.8,94,30.00,10.0,NW,8.1,-,N/A,,Overcast,320,2013-05-10 14:51:00
9:57 AM,62.6,60.8,94,30.00,10.0,NW,8.1,-,N/A,,Overcast,310,2013-05-10 14:57:00
9:59 AM,62.1,60.1,93,29.98,10.0,NW,9.2,-,N/A,,Overcast,310,2013-05-10 14:59:00
10:12 AM,62.6,59.0,88,30.00,10.0,Variable,6.9,-,N/A,,Overcast,0,2013-05-10 15:12:00
10:18 AM,62.6,60.8,94,30.00,10.0,NW,6.9,-,N/A,,Overcast,320,2013-05-10 15:18:00
10:36 AM,62.6,59.0,88,30.00,10.0,NW,6.9,-,N/A,,Overcast,320,2013-05-10 15:36:00
10:45 AM,62.6,59.0,88,30.00,10.0,NNW,6.9,-,N/A,,Overcast,330,2013-05-10 15:45:00
10:57 AM,62.1,59.0,90,29.98,10.0,Variable,4.6,-,N/A,,Overcast,0,2013-05-10 15:57:00
11:13 AM,64.4,60.8,88,30.00,10.0,WNW,5.8,-,N/A,,Mostly Cloudy,290,2013-05-10 16:13:00
11:18 AM,64.4,59.0,83,30.01,10.0,West,5.8,-,N/A,,Mostly Cloudy,270,2013-05-10 16:18:00
11:57 AM,66.0,59.0,78,29.99,10.0,WNW,5.8,-,N/A,,Overcast,290,2013-05-10 16:57:00
12:57 PM,66.0,60.1,81,29.98,10.0,NNW,10.4,17.3,N/A,,Mostly Cloudy,330,2013-05-10 17:57:00
1:47 PM,64.4,57.2,77,30.01,10.0,NW,9.2,-,N/A,,Scattered Clouds,320,2013-05-10 18:47:00
1:57 PM,66.2,57.2,73,30.01,10.0,NW,8.1,-,N/A,,Mostly Cloudy,320,2013-05-10 18:57:00
1:59 PM,66.2,57.2,73,30.01,10.0,NW,6.9,-,N/A,,Mostly Cloudy,320,2013-05-10 18:59:00
2:11 PM,64.4,57.2,77,30.01,10.0,NNW,8.1,17.3,N/A,,Mostly Cloudy,330,2013-05-10 19:11:00
2:14 PM,64.4,57.2,77,30.01,10.0,NW,10.4,-,N/A,,Mostly Cloudy,320,2013-05-10 19:14:00
2:27 PM,66.2,57.2,73,30.01,10.0,North,10.4,-,N/A,,Overcast,360,2013-05-10 19:27:00
2:57 PM,66.0,55.9,70,29.99,10.0,North,9.2,-,N/A,,Mostly Cloudy,360,2013-05-10 19:57:00
3:08 PM,66.2,57.2,73,30.01,10.0,WNW,11.5,17.3,N/A,,Mostly Cloudy,300,2013-05-10 20:08:00
3:57 PM,66.9,55.9,68,29.99,10.0,NW,12.7,-,N/A,,Mostly Cloudy,310,2013-05-10 20:57:00
4:57 PM,66.0,55.9,70,29.98,10.0,NW,10.4,-,N/A,,Overcast,320,2013-05-10 21:57:00
5:31 PM,64.4,55.4,73,30.00,10.0,NW,11.5,-,N/A,,Overcast,320,2013-05-10 22:31:00
5:39 PM,64.4,55.4,73,30.00,10.0,NW,11.5,-,N/A,,Mostly Cloudy,320,2013-05-10 22:39:00
5:57 PM,64.9,55.9,73,29.97,10.0,NNW,12.7,16.1,N/A,,Scattered Clouds,340,2013-05-10 22:57:00
6:54 PM,64.4,53.6,68,29.99,10.0,Variable,4.6,-,N/A,,Mostly Cloudy,0,2013-05-10 23:54:00
6:57 PM,64.0,54.0,70,29.98,10.0,NNW,4.6,-,N/A,,Mostly Cloudy,340,2013-05-10 23:57:00
7:01 PM,64.4,53.6,68,30.00,10.0,NNW,6.9,-,N/A,,Scattered Clouds,340,2013-05-11 00:01:00
7:57 PM,62.1,52.0,70,30.00,10.0,NNW,4.6,-,N/A,,Mostly Cloudy,340,2013-05-11 00:57:00
8:57 PM,59.0,52.0,78,30.02,10.0,NNW,5.8,-,N/A,,Partly Cloudy,330,2013-05-11 01:57:00
9:06 PM,57.2,51.8,82,30.04,10.0,NNW,5.8,-,N/A,,Mostly Cloudy,340,2013-05-11 02:06:00
9:57 PM,57.9,53.1,84,30.04,10.0,North,4.6,-,N/A,,Mostly Cloudy,350,2013-05-11 02:57:00
10:32 PM,57.2,53.6,88,30.07,10.0,North,4.6,-,N/A,,Scattered Clouds,360,2013-05-11 03:32:00
10:57 PM,55.9,53.1,90,30.07,10.0,NNW,3.5,-,N/A,,Partly Cloudy,340,2013-05-11 03:57:00
11:57 PM,54.0,52.0,93,30.06,8.0,Calm,Calm,-,N/A,,Clear,0,2013-05-11 04:57:00